The Dalles, WA

11:35 PM PST on November 16, 2019 (GMT -0800)
Columbia Gorge Regional-The Dalles

Weather History for KDLS - September, 2019

Change the Weather History Date:

Thursday, September 19, 2019

  Actual Average Record
Temperature  
Mean Temperature 62 °F -  
Max Temperature 75 °F 77 °F 95 °F (1952)
Min Temperature 52 °F 51 °F 36 °F (1965)
Degree Days  
Heating Degree Days 2    
Growing Degree Days 12 (Base 50)    
Moisture  
Dew Point 49 °F    
Average Humidity 63    
Maximum Humidity 86    
Minimum Humidity 43    
Precipitation  
Precipitation 0.00 in - - ()
Sea Level Pressure  
Sea Level Pressure 30.00 in    
Wind  
Wind Speed 7 mph (WNW)    
Max Wind Speed 17 mph    
Max Gust Speed 28 mph    
Visibility 10 miles    
Events      
Averages and records for this station are not official NWS values.
T = Trace of Precipitation, MM = Missing Value Source: NWS Daily Summary

Daily Weather History Graph

Daily Weather History Graph

Search for Another Location

Airport or City:

Astronomy

Sep. 19, 2019 Rise Set
Actual Time 6:47 AM PDT 7:08 PM PDT
Civil Twilight 6:18 AM PDT 7:37 PM PDT
Nautical Twilight 5:43 AM PDT 8:12 PM PDT
Astronomical Twilight 5:06 AM PDT 8:48 PM PDT
Moon 10:05 PM PDT (9/19) 12:11 PM PDT (9/19)
Length of Visible Light 13h 19m
Length of Day
12h 20m
Waning Gibbous, 73% of the Moon is Illuminated
Sep 19
Waning Gibbous
Sep 21
Last Quarter
Sep 28
New
Oct 5
First Quarter
Oct 13
Full

Hourly Weather History & Observations

Time (PDT) Temp. Dew Point Humidity Pressure Visibility Wind Dir Wind Speed Gust Speed Precip Events Conditions
12:53 AM 55.0 °F 48.0 °F 77% 29.95 in 10.0 mi West 4.6 mph - N/A   Mostly Cloudy
1:53 AM 55.0 °F 46.9 °F 74% 29.97 in 10.0 mi Calm Calm - N/A   Scattered Clouds
2:53 AM 53.1 °F 48.0 °F 83% 29.98 in 10.0 mi Calm Calm - N/A   Partly Cloudy
3:53 AM 53.1 °F 46.9 °F 80% 29.99 in 10.0 mi SW 5.8 mph - N/A   Overcast
4:53 AM 52.0 °F 46.9 °F 83% 30.00 in 10.0 mi Variable 3.5 mph - N/A   Mostly Cloudy
5:53 AM 53.1 °F 48.0 °F 83% 30.01 in 10.0 mi SSW 5.8 mph - N/A   Partly Cloudy
6:53 AM 53.1 °F 48.9 °F 86% 30.02 in 10.0 mi WNW 6.9 mph - N/A   Clear
7:53 AM 54.0 °F 48.9 °F 83% 30.04 in 10.0 mi WSW 3.5 mph - N/A   Clear
8:53 AM 57.0 °F 50.0 °F 77% 30.04 in 10.0 mi NW 10.4 mph - N/A   Clear
9:53 AM 60.1 °F 50.0 °F 69% 30.04 in 10.0 mi Variable 4.6 mph - N/A   Clear
10:53 AM 64.9 °F 51.1 °F 61% 30.03 in 10.0 mi NW 11.5 mph - N/A   Clear
11:53 AM 70.0 °F 48.9 °F 47% 30.01 in 10.0 mi WNW 15.0 mph 20.7 mph N/A   Clear
12:53 PM 71.1 °F 48.9 °F 45% 30.01 in 10.0 mi NNW 13.8 mph - N/A   Clear
1:53 PM 72.0 °F 50.0 °F 46% 29.99 in 10.0 mi NW 15.0 mph - N/A   Clear
2:53 PM 73.9 °F 50.0 °F 43% 29.98 in 10.0 mi NNW 17.3 mph - N/A   Clear
3:53 PM 72.0 °F 50.0 °F 46% 29.97 in 10.0 mi NW 15.0 mph - N/A   Clear
4:53 PM 69.1 °F 48.9 °F 49% 29.97 in 10.0 mi WNW 17.3 mph 27.6 mph N/A   Clear
5:53 PM 70.0 °F 50.0 °F 49% 29.98 in 10.0 mi West 9.2 mph 18.4 mph N/A   Clear
6:53 PM 66.9 °F 48.9 °F 52% 29.99 in 10.0 mi West 6.9 mph - N/A   Clear
7:53 PM 66.0 °F 48.0 °F 52% 29.99 in 10.0 mi WNW 12.7 mph - N/A   Mostly Cloudy
8:53 PM 64.9 °F 48.0 °F 54% 29.99 in 10.0 mi West 13.8 mph - N/A   Clear
9:53 PM 66.0 °F 48.0 °F 52% 29.99 in 10.0 mi West 16.1 mph 26.5 mph N/A   Clear
10:53 PM 64.9 °F 48.0 °F 54% 29.99 in 10.0 mi WNW 8.1 mph - N/A   Clear
11:53 PM 64.0 °F 50.0 °F 60% 30.00 in 10.0 mi WNW 5.8 mph - N/A   Clear